Simultaneous Nadir Overpasses (SNOs) Predictions

Prediction of SNOs between NOAA-20 and METOP-C Satellite Orbit:

Table of predicted SNOs for the next 14.0 days since TLE Epoch: 1/7/2023
Index Date (NOAA-20) Time (NOAA-20) Lat,Lon (NOAA-20) SZA (NOAA-20 ) Date (METOP-C) Time (METOP-C) Lat,Lon (METOP-C) SZA (METOP-C ) Distance(km) Time Diff (sec)
1 01/17/2023 05:29:57 73.35, 88.00 94.39 01/17/2023 05:31:04 73.31, 90.42 94.21 77.17 67
2 01/17/2023 06:20:39 -73.26,-104.47 85.73 01/17/2023 06:21:48 -73.18,-102.55 85.92 62.09 69
3 01/17/2023 07:11:21 73.06, 63.29 94.05 01/17/2023 07:12:32 72.99, 64.37 93.91 36.02 71
4 01/17/2023 08:02:03 -72.96,-129.19 86.07 01/17/2023 08:03:15 -72.90,-128.48 86.18 24.14 72
5 01/17/2023 08:52:45 72.76, 38.55 93.71 01/17/2023 08:53:58 72.76, 38.55 93.69 0.37 73
6 01/17/2023 09:43:29 -72.76,-154.15 86.30 01/17/2023 09:44:39 -72.78,-154.08 86.30 2.68 70
7 01/17/2023 10:34:15 72.76, 13.16 93.70 01/17/2023 10:35:20 72.74, 13.16 93.66 2.78 65
8 01/17/2023 11:24:59 -72.77,-179.53 86.31 01/17/2023 11:26:01 -72.75,-179.47 86.34 2.63 62
9 01/17/2023 12:15:45 72.76, -12.22 93.69 01/17/2023 12:16:41 72.76, -12.12 93.67 3.35 56
10 01/17/2023 13:06:28 -72.72, 155.19 86.37 01/17/2023 13:07:23 -72.73, 155.14 86.37 1.81 55
11 01/17/2023 13:57:14 72.72, -37.50 93.62 01/17/2023 13:58:03 72.74, -37.51 93.63 2.36 49
12 01/17/2023 14:47:58 -72.73, 129.80 86.38 01/17/2023 14:48:45 -72.71, 129.75 86.41 2.63 47
13 01/17/2023 15:38:44 72.72, -62.88 93.61 01/17/2023 15:39:25 72.72, -62.90 93.60 0.88 41
14 01/17/2023 16:29:28 -72.73, 104.42 86.39 01/17/2023 16:30:06 -72.73, 104.47 86.40 1.72 38
15 01/17/2023 17:20:14 72.73, -88.26 93.61 01/17/2023 17:20:46 72.74, -88.18 93.61 3.36 32
16 01/17/2023 18:10:58 -72.73, 79.04 86.40 01/17/2023 18:11:28 -72.71, 79.08 86.43 2.90 30
17 01/17/2023 19:01:44 72.73,-113.65 93.60 01/17/2023 19:02:08 72.72,-113.57 93.58 2.94 24
18 01/17/2023 19:52:27 -72.69, 53.76 86.46 01/17/2023 19:52:50 -72.69, 53.70 86.46 2.13 23
19 01/17/2023 20:43:13 72.68,-138.93 93.53 01/17/2023 20:43:30 72.70,-138.96 93.54 1.62 17
20 01/17/2023 21:33:57 -72.69, 28.38 86.47 01/17/2023 21:34:11 -72.72, 28.41 86.45 2.93 14
21 01/17/2023 22:24:43 72.69,-164.31 93.52 01/17/2023 22:24:52 72.67,-164.34 93.51 2.14 9
22 01/17/2023 23:15:27 -72.70, 2.99 86.48 01/17/2023 23:15:33 -72.69, 3.03 86.49 1.09 6
23 01/18/2023 00:06:13 72.69, 170.31 93.51 01/18/2023 00:06:13 72.70, 170.37 93.52 2.28 0
24 01/18/2023 00:56:56 -72.65, -22.28 86.55 01/18/2023 00:56:55 -72.67, -22.36 86.52 3.39 1
25 01/18/2023 01:47:43 72.70, 144.93 93.50 01/18/2023 01:47:35 72.68, 144.99 93.48 3.07 8
26 01/18/2023 02:38:25 -72.65, -47.67 86.56 01/18/2023 02:38:16 -72.65, -47.75 86.56 2.84 9
27 01/18/2023 03:29:11 72.65, 119.65 93.44 01/18/2023 03:28:56 72.65, 119.60 93.45 1.66 15
28 01/18/2023 04:19:55 -72.66, -73.05 86.57 01/18/2023 04:19:37 -72.67, -73.03 86.55 1.85 18
29 01/18/2023 05:10:41 72.65, 94.26 93.43 01/18/2023 05:10:17 72.68, 94.31 93.46 3.23 24
30 01/18/2023 06:01:25 -72.66, -98.43 86.58 01/18/2023 06:00:59 -72.65, -98.42 86.58 1.37 26
31 01/18/2023 06:52:11 72.66, 68.88 93.42 01/18/2023 06:51:39 72.66, 68.93 93.42 1.53 32
32 01/18/2023 07:42:54 -72.61,-123.71 86.64 01/18/2023 07:42:21 -72.63,-123.81 86.62 3.40 33
33 01/18/2023 08:33:40 72.61, 43.60 93.36 01/18/2023 08:33:01 72.63, 43.54 93.39 3.07 39
34 01/18/2023 09:24:24 -72.62,-149.10 86.65 01/18/2023 09:23:43 -72.60,-149.19 86.65 3.74 41
35 01/18/2023 10:15:10 72.62, 18.22 93.35 01/18/2023 10:14:23 72.61, 18.15 93.35 2.45 47
36 01/18/2023 11:05:54 -72.62,-174.48 86.66 01/18/2023 11:05:04 -72.63,-174.48 86.64 0.81 50
37 01/18/2023 11:56:40 72.62, -7.16 93.34 01/18/2023 11:55:44 72.64, -7.13 93.36 1.95 56
38 01/18/2023 12:47:24 -72.63, 160.14 86.67 01/18/2023 12:46:26 -72.61, 160.13 86.68 2.25 58
39 01/18/2023 13:38:10 72.62, -32.55 93.33 01/18/2023 13:37:06 72.61, -32.52 93.33 1.67 64
40 01/18/2023 14:28:54 -72.63, 134.76 86.68 01/18/2023 14:27:47 -72.63, 134.85 86.67 3.17 67
41 01/18/2023 15:19:39 72.58, -57.83 93.26 01/18/2023 15:18:28 72.59, -57.91 93.29 2.97 71
42 01/18/2023 16:10:23 -72.58, 109.48 86.74 01/18/2023 16:09:09 -72.61, 109.46 86.70 2.93 74
43 01/18/2023 17:01:06 72.43, -82.90 93.09 01/18/2023 16:59:53 72.41, -83.60 93.12 23.70 73
44 01/18/2023 17:51:48 -72.34, 84.60 87.03 01/18/2023 17:50:36 -72.33, 83.57 86.96 34.90 72
45 01/18/2023 18:42:30 72.13,-107.68 92.74 01/18/2023 18:41:20 72.13,-109.49 92.86 61.73 70
46 01/18/2023 19:33:12 -72.03, 59.81 87.37 01/18/2023 19:32:03 -72.05, 57.69 87.22 72.86 69



Historial Predications of SNOs between NOAA-20 and METOP-C
